Theta_e
325 324 323 323 323 322 323 323 324 325 326 327 327 328 327 326 325 319 309 314 318 330 326 314 311 312 311 312 312 309 299 296 296 296 297 300 299 303 302 297 301 303 301 300 302
324 323 322 321 321 322 322 323 324 325 325 326 326 327 327 325 318 311 319 327 329 328 311 308 307 309 307 307 308 302 299 298 300 299 298 300 299 298 298 299 298 300 301 302 300
323 321 321 320 321 321 322 323 324 324 325 325 326 327 325 322 314 310 324 328 327 322 311 309 309 310 306 306 303 302 298 300 301 302 301 299 298 299 295 296 295 297 296 298 297
322 320 320 320 320 320 321 323 324 324 324 325 326 326 322 320 304 311 324 327 327 318 311 309 308 305 302 301 304 297 302 302 303 301 300 297 298 296 298 297 300 298 298 297 296
320 319 318 318 319 318 320 322 323 323 323 325 326 325 320 311 307 312 323 318 313 311 308 307 304 303 300 300 301 299 300 301 301 299 298 299 297 295 297 299 300 299 298 295 295
319 318 317 317 317 317 319 322 323 323 323 325 326 321 317 306 313 317 311 311 309 309 308 306 304 304 302 301 298 300 300 299 300 299 298 297 295 296 298 299 297 297 295 294 294
318 317 316 317 316 316 319 320 322 322 323 324 324 318 314 308 311 316 312 308 308 307 307 306 305 303 304 301 301 298 294 297 297 298 297 297 293 293 298 298 296 295 293 294 294
317 316 316 316 315 316 319 320 320 322 322 324 323 317 309 314 313 314 314 311 309 308 308 306 306 304 301 302 299 295 294 291 297 298 297 295 288 295 299 296 295 293 291 292 293
317 315 316 316 315 316 318 319 320 321 321 321 318 313 306 315 312 313 312 306 307 307 306 305 305 302 300 296 292 295 288 289 293 297 295 293 289 296 297 296 293 290 289 290 291
316 315 316 315 314 316 318 320 322 318 317 313 312 309 309 308 312 311 309 307 306 305 305 303 301 296 296 292 284 285 285 288 289 293 292 291 291 293 294 294 291 288 287 287 287
316 315 315 314 314 317 317 314 307 310 308 305 306 305 307 312 311 308 307 305 306 302 299 302 293 292 293 292 291 290 289 288 292 293 289 289 289 291 292 292 288 286 286 285 285
316 315 314 313 314 317 314 306 305 307 299 307 307 307 310 309 303 305 306 301 301 296 301 297 293 295 295 294 293 291 288 287 290 294 290 289 288 292 291 290 289 286 285 284 284
315 314 313 313 314 314 307 307 312 312 300 304 306 307 307 307 302 302 303 301 298 296 296 291 296 296 293 292 290 288 287 286 286 289 290 287 284 287 287 288 287 287 286 285 284
314 314 312 312 310 308 307 310 313 311 296 299 300 305 303 304 299 304 302 300 299 296 293 292 294 293 292 291 289 285 288 288 287 283 278 285 276 283 283 284 285 285 283 282 282
314 313 311 310 306 305 308 312 310 306 285 299 301 306 304 300 300 301 302 299 295 296 292 292 289 288 288 289 291 288 288 286 285 283 281 281 277 281 284 282 282 282 282 282 282
314 311 309 311 308 310 311 310 306 295 285 297 302 300 298 298 299 300 300 299 297 291 292 292 293 291 289 293 291 290 287 286 285 282 275 280 280 280 282 285 281 282 281 282 282
313 310 307 308 304 311 311 307 293 288 299 295 296 298 297 296 297 296 296 292 290 288 288 290 289 291 291 287 290 287 282 276 275 274 274 280 276 280 281 282 282 281 280 280 281
312 308 310 309 311 311 310 296 286 295 296 297 296 295 293 296 295 294 291 289 294 291 286 283 282 288 290 286 282 283 281 275 269 271 274 278 273 279 283 283 283 283 282 282 281
308 309 310 310 310 310 299 289 290 294 299 296 294 292 294 293 291 289 289 290 292 291 285 285 284 285 285 286 285 283 278 281 275 267 267 273 278 281 282 281 282 281 281 280 280
309 308 309 310 310 306 292 291 294 299 297 296 292 296 291 292 288 289 290 292 290 291 290 286 281 285 282 283 282 279 283 275 275 265 265 273 275 276 277 279 279 278 278 279 281
305 301 305 310 309 297 286 289 295 300 299 295 294 293 294 293 293 291 291 292 291 287 287 284 283 280 281 279 278 276 275 276 277 276 268 266 272 278 278 279 277 277 280 279 280
303 297 306 309 294 294 290 294 298 297 297 296 294 295 294 294 293 291 290 293 290 287 282 285 283 278 280 279 280 278 278 277 271 271 272 271 272 283 282 280 280 279 280 280 280
297 301 306 306 289 291 295 295 297 295 294 293 292 295 295 292 288 291 293 287 289 286 284 282 279 277 278 276 278 275 276 277 277 276 271 270 272 281 281 280 280 278 278 279 280
303 292 297 298 298 294 293 293 292 295 294 294 294 295 292 290 291 289 289 285 287 286 287 287 280 280 282 282 278 274 275 276 276 272 273 273 275 279 281 280 279 277 278 278 279
301 296 297 288 291 293 295 294 293 292 294 295 291 292 291 288 289 288 290 282 283 285 283 282 277 279 280 279 279 278 276 276 274 275 272 275 275 279 281 278 277 277 279 279 278
297 296 295 296 295 292 293 292 292 294 295 292 292 294 292 289 291 288 290 288 282 281 280 282 276 279 276 278 277 274 276 276 277 277 275 276 275 282 283 280 276 278 278 277 277
305 305 300 296 294 294 293 293 293 296 297 298 297 294 290 292 292 288 289 290 287 281 280 280 277 274 273 274 274 270 274 275 276 278 277 272 277 281 279 277 276 277 277 277 276
Wind_Speed
19 19 20 20 19 19 18 17 16 16 13 12 12 10 10 10 10 1 7 5 7 13 9 9 7 2 4 3 3 2 2 4 3 4 5 3 8 7 2 1 10 7 14 10 11
19 20 21 22 20 18 18 17 16 16 15 12 11 10 9 9 3 8 2 7 8 8 5 8 8 8 3 2 2 2 2 5 7 7 7 9 8 6 6 9 8 6 15 12 12
19 19 21 21 21 19 18 17 16 16 15 13 9 7 7 4 3 3 4 8 9 7 5 4 6 4 4 2 3 2 2 5 6 8 8 5 4 3 4 8 3 8 10 10 11
18 20 21 21 22 21 19 17 16 17 15 13 8 7 6 3 1 4 8 8 10 7 5 6 6 3 3 1 5 4 4 3 4 6 5 5 5 3 9 5 13 13 10 11 11
17 18 20 21 22 23 20 17 16 17 14 11 8 6 2 4 4 5 9 8 5 6 6 6 7 5 4 3 3 7 3 1 1 3 2 4 5 3 7 9 14 12 11 10 10
16 18 19 21 23 24 23 18 16 16 14 9 6 3 3 4 2 5 6 3 7 6 6 6 4 4 5 4 1 3 4 8 2 3 3 5 3 3 6 10 12 10 10 9 10
15 18 20 21 23 24 25 21 16 17 10 7 3 3 2 2 1 4 4 2 3 4 3 3 3 3 3 5 3 3 4 6 6 5 5 3 3 6 6 6 13 11 9 8 9
15 16 19 21 23 24 25 24 17 13 8 6 5 3 1 2 5 3 6 4 3 1 2 1 1 4 3 4 3 4 2 4 9 9 7 4 5 4 9 9 11 10 7 7 8
14 16 18 20 23 25 26 26 18 8 6 7 4 1 1 1 1 3 2 2 6 3 4 2 2 3 2 3 3 5 3 9 2 10 6 5 5 6 3 10 11 9 8 7 7
12 16 18 20 22 24 26 26 3 4 5 3 2 2 2 1 2 4 1 2 3 6 4 4 4 4 4 2 2 4 6 5 7 1 1 7 10 6 3 11 11 9 8 7 8
11 14 18 20 22 24 14 7 7 1 8 5 4 5 2 4 2 3 2 4 5 4 7 3 1 8 5 5 3 5 7 10 10 2 1 7 8 11 8 10 10 9 8 7 6
10 12 17 20 21 21 7 5 3 1 10 4 3 4 3 2 2 2 5 2 4 6 9 6 7 4 2 3 4 6 9 11 7 4 5 10 14 17 12 11 9 9 7 5 6
9 11 15 19 21 7 6 4 1 2 4 2 3 3 2 2 2 3 6 1 2 4 7 4 8 3 3 5 6 7 8 5 5 8 10 16 12 5 7 9 8 7 6 7 7
7 10 15 24 4 3 3 2 1 2 3 4 3 2 2 2 3 2 3 2 2 5 4 8 3 2 5 7 4 4 5 4 8 6 4 8 9 4 12 9 8 8 7 7 6
6 8 13 10 6 2 2 1 1 2 6 1 3 1 2 3 1 1 1 1 3 6 3 9 2 3 5 4 3 3 2 6 10 12 11 10 6 7 19 13 11 8 7 6 5
3 6 12 1 3 3 0 2 3 1 10 2 3 3 3 5 4 4 2 2 2 4 7 14 6 3 2 2 2 7 7 10 14 7 5 6 9 6 14 17 10 7 7 5 4
3 3 5 3 2 1 2 3 3 5 1 4 2 3 1 4 4 3 2 3 4 6 4 1 12 4 1 4 5 3 4 5 6 1 8 5 5 9 7 8 10 7 5 4 4
5 1 5 3 2 2 2 3 7 6 7 3 2 1 5 3 5 3 2 4 9 5 5 4 5 7 6 1 2 2 1 5 8 4 6 8 9 5 11 11 9 7 6 5 7
6 3 3 4 4 2 3 7 7 8 2 6 2 6 6 2 2 1 9 6 2 11 9 5 5 4 4 3 1 5 4 2 1 2 2 7 6 4 10 9 7 5 6 6 6
2 2 5 10 7 3 4 14 10 6 5 1 7 8 6 6 6 6 7 4 5 5 4 4 9 2 3 2 2 1 5 4 1 3 8 6 9 6 9 8 5 5 4 4 4
3 3 3 6 4 3 9 11 12 17 5 7 7 12 13 10 8 7 7 5 8 4 4 1 4 2 4 8 9 4 4 4 0 5 6 5 6 5 7 6 3 1 2 4 7
4 4 5 6 5 5 12 9 15 18 3 6 1 12 14 9 10 9 8 8 11 10 9 6 3 5 8 4 4 2 7 9 6 6 4 3 14 4 4 10 6 2 5 4 6
4 5 2 4 8 12 8 11 16 16 7 8 11 12 6 8 7 10 11 5 10 10 9 8 5 4 7 2 1 5 6 5 5 1 14 6 11 5 6 8 3 6 3 5 8
4 5 4 4 6 11 15 21 21 8 10 14 8 7 7 10 7 7 7 2 2 4 4 6 6 12 21 6 5 6 8 11 13 12 21 26 30 13 10 12 5 6 6 7 9
5 7 9 8 10 19 19 8 16 18 13 15 9 22 19 13 10 18 11 4 4 4 4 5 11 11 19 15 8 12 9 15 20 25 20 34 24 22 13 6 2 3 6 9 11
7 6 1 7 13 22 24 22 28 22 13 8 25 16 12 23 23 9 12 8 9 8 7 1 6 5 16 9 10 19 18 19 24 27 26 28 34 19 17 8 4 4 6 8 10
9 3 4 9 16 19 21 26 27 18 19 29 22 14 17 19 5 5 3 2 8 13 12 8 6 4 7 4 8 17 25 28 27 21 23 24 31 14 10 3 1 3 5 6 8
Wind_Direction
358 358 356 354 351 348 344 341 337 328 335 336 337 341 337 335 318 218 50 330 303 311 312 263 244 203 232 152 303 298 292 260 54 23 30 125 33 30 111 212 57 79 75 76 47
356 354 354 351 349 346 342 340 336 326 328 333 338 339 339 343 219 70 329 297 301 305 330 358 359 333 235 162 194 274 309 13 16 23 14 15 20 18 353 62 45 36 65 62 55
353 351 350 347 345 345 341 337 333 323 327 328 333 333 340 313 283 66 330 328 323 290 265 267 263 260 285 112 117 1 281 13 36 35 21 345 353 349 305 71 21 83 74 63 62
349 349 346 344 342 341 339 334 331 320 324 319 330 334 349 233 258 46 340 339 309 276 281 346 299 327 304 252 107 295 47 17 41 54 5 343 313 350 72 95 74 79 78 66 55
348 347 344 339 341 338 335 335 329 320 319 318 329 350 267 211 75 17 354 344 350 335 36 354 14 348 308 4 347 198 112 208 221 310 10 325 247 72 116 66 92 85 72 68 58
347 345 341 337 339 336 330 333 328 319 314 318 332 345 259 249 276 30 3 9 14 2 37 16 14 354 272 291 274 9 307 272 143 124 120 340 315 146 134 100 95 92 90 83 74
347 343 339 338 337 334 325 327 325 313 307 312 316 256 260 80 69 349 62 60 336 5 3 69 340 266 4 242 34 289 295 124 176 180 157 262 256 202 125 116 125 113 107 95 81
343 341 339 336 333 330 321 317 320 301 298 289 289 252 11 95 322 29 348 159 174 118 351 67 319 283 258 20 215 249 215 196 172 190 169 142 253 59 180 118 117 105 95 67 76
338 338 337 335 332 327 318 312 307 278 274 288 250 75 168 144 269 325 41 357 294 232 175 199 210 274 136 223 252 212 326 329 308 195 155 191 264 245 289 120 121 114 83 59 44
335 335 336 333 332 324 318 303 257 318 238 235 270 256 127 53 340 321 19 245 296 294 192 227 203 215 230 21 311 329 312 302 281 179 91 271 251 289 280 129 135 125 98 72 54
329 334 333 333 332 322 334 332 355 263 25 267 310 265 69 330 121 201 2 308 215 222 330 296 329 294 42 55 320 260 258 271 279 82 78 247 275 260 137 126 130 122 108 89 73
322 334 333 332 329 318 306 51 62 247 309 196 287 289 259 13 265 138 306 319 1 323 320 323 272 60 25 267 237 262 264 272 291 120 4 269 263 278 153 158 151 123 113 103 45
318 335 333 328 323 312 63 54 330 257 268 248 197 260 116 197 343 59 330 156 337 321 343 298 279 35 278 291 283 280 276 302 282 321 264 275 275 173 98 105 112 123 149 85 47
316 338 337 326 330 342 78 43 184 281 284 221 212 135 161 300 229 355 7 48 261 298 339 267 90 28 302 273 285 276 51 321 286 317 241 54 291 124 155 159 169 147 94 57 29
302 341 335 349 308 314 51 98 190 250 318 18 145 76 90 243 106 165 347 272 239 272 99 251 218 277 272 275 97 247 356 259 259 252 287 254 252 253 161 185 169 141 104 62 33
272 347 338 85 248 62 294 180 241 243 245 161 123 160 208 184 185 146 238 214 74 294 229 248 120 211 283 103 175 331 289 272 253 250 269 235 212 236 177 189 142 126 78 55 23
201 331 321 311 338 119 229 241 271 212 231 166 207 203 272 199 180 195 214 182 237 305 244 288 217 116 167 259 151 216 296 322 338 7 227 105 336 245 140 112 128 116 82 63 14
167 315 206 265 126 205 230 222 230 252 267 86 107 151 236 125 216 138 227 262 225 236 319 269 303 159 155 216 81 156 56 159 259 270 264 23 253 237 128 130 138 95 79 46 17
139 204 224 190 169 203 222 209 212 201 275 136 123 225 214 151 230 208 211 229 245 178 195 299 243 83 20 54 90 142 200 354 326 78 349 234 271 75 138 154 141 61 36 26 0
187 234 226 138 153 203 221 226 237 203 121 100 224 225 250 201 183 192 207 187 202 189 48 342 298 96 111 116 98 249 148 81 109 294 269 259 255 233 188 184 89 29 2 358 344
142 229 107 134 167 212 215 215 235 250 187 201 234 265 262 268 237 220 241 202 161 113 67 57 211 134 129 204 174 158 209 227 16 191 213 292 250 149 142 151 140 277 9 13 3
161 225 154 170 176 207 223 214 229 263 228 248 305 257 260 262 263 234 233 222 120 133 166 196 246 248 240 77 26 310 215 173 163 241 253 243 262 328 221 163 138 65 31 2 343
200 212 146 238 211 224 241 235 236 239 207 193 234 213 183 229 257 215 237 348 133 158 173 180 217 314 281 26 70 245 209 253 243 224 226 222 253 131 143 173 119 58 9 356 341
171 217 162 226 257 243 233 235 235 199 237 215 245 209 208 231 228 266 177 151 47 162 84 151 213 210 255 275 139 215 224 213 219 232 254 234 260 248 245 273 324 19 2 3 337
194 225 176 191 213 228 235 246 231 223 213 204 239 233 238 258 227 237 256 149 154 170 184 193 242 240 260 275 277 263 248 217 217 233 228 259 246 265 265 271 330 5 3 341 333
193 192 184 241 179 207 220 228 236 239 242 202 234 230 220 235 227 239 222 183 190 165 185 243 249 235 265 267 266 266 244 241 244 240 247 257 271 258 280 274 41 352 1 330 316
210 160 211 213 214 231 211 224 233 226 238 241 245 242 233 237 253 13 12 17 162 157 172 186 202 162 250 67 329 280 234 229 243 238 237 244 250 293 261 125 54 20 333 324 333